• Processing (Info)

  • MPEC 2016-E92 : 2016 EG56

    The following Minor Planet Electronic Circular may be linked-to from your own Web pages, but must not otherwise be redistributed electronically.

    A form allowing access to any MPEC is at the bottom of this page.


    Read MPEC 2016-E91 Read MPEC 2016-E93


    M.P.E.C. 2016-E92                                Issued 2016 Mar.  9, 16:42 UT
    
         The Minor Planet Electronic Circulars contain information on unusual
             minor planets and routine data on comets.  They are published
        on behalf of Division F of the International Astronomical Union by the
              Minor Planet Center, Smithsonian Astrophysical Observatory,
                              Cambridge, MA 02138, U.S.A.
    
                 Prepared using the Tamkin Foundation Computer Network
    
                                  MPC@CFA.HARVARD.EDU
                URL https://www.minorplanetcenter.net/    ISSN 1523-6714
    
                                       2016 EG56
    
    Observations:
         K16E56G* C2016 03 04.34765 09 54 45.323-02 52 00.90         21.4 wLEE092F51
         K16E56G  C2016 03 04.36119 09 54 45.798-02 51 50.65         21.3 wLEE092F51
         K16E56G  C2016 03 04.37469 09 54 46.265-02 51 40.41         21.3 wLEE092F51
         K16E56G  C2016 03 04.38825 09 54 46.728-02 51 30.07         21.3 wLEE092F51
         K16E56G |C2016 03 06.20594 09 56 15.83 -02 27 09.7          21.3 VuEE092807
         K16E56G |C2016 03 06.21033 09 56 16.02 -02 27 06.2          21.5 VuEE092807
         K16E56G |C2016 03 06.21471 09 56 16.20 -02 27 02.6          21.4 VuEE092807
         K16E56G  C2016 03 06.26896209 56 18.50 -02 26 18.1          20.7 RtEE092W86
         K16E56G "C2016 03 06.27020009 56 19.59 -02 26 50.1          20.6 RtEE092705
         K16E56G "C2016 03 06.27120809 56 19.64 -02 26 49.4          20.6 RtEE092705
         K16E56G  C2016 03 06.27213309 56 18.67 -02 26 15.0          20.4 RtEE092W86
         K16E56G "C2016 03 06.27221609 56 19.67 -02 26 48.6          20.5 RtEE092705
         K16E56G HC2016 03 07.25566 09 57 13.06 -02 13 08.8                oEE092691
         K16E56G HC2016 03 07.26023 09 57 13.27 -02 13 05.8                oEE092691
         K16E56G HC2016 03 07.26480 09 57 13.51 -02 13 01.0                oEE092691
         K16E56G KC2016 03 09.23181 09 59 09.68 -01 44 21.7          20.3 RoEE092291
         K16E56G KC2016 03 09.23615 09 59 09.93 -01 44 17.2          20.4 RoEE092291
         K16E56G KC2016 03 09.24048 09 59 10.12 -01 44 13.8                oEE092291
    
    Observer details:
    291 LPL/Spacewatch II.  Observer R. S. McMillan.  1.8-m f/2.7 reflector + CCD.
    691 Steward Observatory, Kitt Peak.  Observer J. V. Scotti.  0.9-m f/3
        reflector + CCD.
    705 Apache Point.  Observers K. Nault, M. Hammergren, M. Brucker.  Measurer
        K. Nault.  3.5-m f/10 reflector + CCD.
    807 Cerro Tololo.  Observers T. Linder, R. Holmes.  0.61-m f/6.5 astrograph
        + CCD.
    F51 Pan-STARRS 1, Haleakala.  Observers B. Gibson, T. Goggia, N. Primak,
        A. Schultz, M. Willman.  Measurers K. Chambers, S. Chastel, L. Denneau,
        H. Flewelling, M. Huber, E. Lilly, E. Magnier, R. Wainscoat, C. Waters,
        R. Weryk.  1.8-m Ritchey-Chretien + CCD.
    W86 Cerro Tololo-LCOGT B.  Observers T. Lister, S. Greenstreet, E. Gomez.
        Measurer T. Lister.  1.0-m f/8 Ritchey-Chretien + CCD.
    
    Orbital elements:
    2016 EG56                                                Earth MOID = 0.2224 AU
    Epoch 2016 Jan. 13.0 TT = JDT 2457400.5                 MPC
    M 337.45439              (2000.0)            P               Q
    n   0.27811265     Peri.  355.36243     -0.99243528     +0.12069888
    a   2.3244607      Node   191.64208     -0.10875767     -0.94918204
    e   0.4746953      Incl.    6.38730     -0.05695594     -0.29066344
    P   3.54           H   22.6           G   0.15           U   7
    Residuals in seconds of arc
    160304 F51  0.0   0.0     160306 807  0.1-  0.1-    160307 691  0.4-  0.3+
    160304 F51  0.0   0.0     160306 W86  0.2-  0.1-    160307 691  0.2-  0.5-
    160304 F51  0.0   0.0     160306 705  0.2+  0.0     160307 691  0.3+  0.4+
    160304 F51  0.0   0.0     160306 705  0.3+  0.1-    160309 291  0.1-  0.3-
    160306 807  0.2-  0.0     160306 W86  0.3+  0.3+    160309 291  0.3+  0.3+
    160306 807  0.1-  0.1-    160306 705  0.1+  0.1-    160309 291  0.1-  0.2-
    
    Ephemeris:
    2016 EG56                a,e,i = 2.32, 0.47, 6                   q = 1.2211
    Date    TT    R. A. (2000) Decl.     Delta      r     Elong.  Phase     V
    2016 02 08    09 44 51.9 -05 02 38   0.3837  1.3515   159.0    15.2    22.0
    ...
    2016 02 23    09 48 54.6 -04 31 49   0.3141  1.2930   163.1    12.8    21.4
    ...
    2016 03 02    09 53 03.1 -03 20 00   0.2879  1.2679   161.9    14.1    21.2
    ...
    2016 03 08    09 57 55.2 -02 02 14   0.2731  1.2524   159.7    16.0    21.1
    2016 03 09    09 58 54.9 -01 47 32   0.2711  1.2501   159.2    16.4    21.1
    2016 03 10    09 59 58.2 -01 32 25   0.2691  1.2478   158.8    16.7    21.1
    ...
    2016 03 16    10 07 36.6 +00 05 43   0.2596  1.2363   155.9    19.2    21.1
    ...
    2016 03 24    10 21 31.4 +02 27 12   0.2529  1.2258   151.9    22.6    21.1
    ...
    2016 04 08    10 58 10.4 +06 26 17   0.2588  1.2222   144.9    28.1    21.3
    
    A. U. Tomatic                (C) Copyright 2016 MPC           M.P.E.C. 2016-E92
    

    Read MPEC 2016-E91 Read MPEC 2016-E93


    MPEC number:

    Enter an MPEC number in one of the following forms:

    • 1997-B01 (the full form)
    • J97B01 (the packed version of the full form)
    • B01 (the abbreviated form)